This demonstration page uses our WeatherBlox Daily Observations layout. Learn more.

Hourly Observations for May 15, 2019

Temp ( °F °C ) Dew Point ( °F °C ) Humidity (%) Winds ( mph kmh ) Pressure ( in mb ) Visibility ( mi km ) Precip ( " mm )
12:54 am 00:54 Clear 62 16.7 56 13.3 80 80 N 3 6 29.85 1011 10 16.09344 0 0
1:54 am 01:54 Clear 58 14.4 54 12.2 87 87 N 6 9 29.88 1012 10 16.09344 0 0
2:54 am 02:54 Clear 57 13.9 54 12.2 90 90 Calm 29.85 1011 10 16.09344 0 0
3:54 am 03:54 Clear 60 15.6 55 12.8 84 84 NW 6 9 29.88 1012 10 16.09344 0 0
4:54 am 04:54 Mostly Clear 60 15.6 55 12.8 84 84 WSW 5 7 29.85 1011 10 16.09344 0 0
5:54 am 05:54 Mostly Clear 60 15.6 55 12.8 84 84 Calm 29.88 1012 10 16.09344 0 0
7:54 am 07:54 Mostly Cloudy 65 18.3 57 13.9 76 76 Calm 29.91 1013 10 16.09344 0 0
8:54 am 08:54 Mostly Cloudy 67 19.4 58 14.4 73 73 E 3 6 29.91 1013 10 16.09344 0.001 0.001
9:54 am 09:54 Sunny 74 23.3 59 15 60 60 E 5 7 29.91 1013 10 16.09344 0 0
10:54 am 10:54 Mostly Sunny 78 25.6 59 15 52 52 E 10 17 29.91 1013 10 16.09344 0 0
11:54 am 11:54 Sunny 82 27.8 58 14.4 44 44 E 13 20 29.88 1012 10 16.09344 0 0
12:54 pm 12:54 Sunny 82 27.8 55 12.8 40 40 ESE 12 19 29.88 1012 10 16.09344 0 0
1:54 pm 13:54 Sunny 83 28.3 57 13.9 41 41 ESE 14 22 29.85 1011 10 16.09344 0 0
2:54 pm 14:54 Sunny 84 28.9 58 14.4 41 41 SSE 13 20 29.85 1011 10 16.09344 0 0
3:54 pm 15:54 Sunny 85 29.4 58 14.4 40 40 SSE 15 24 29.83 1010 10 16.09344 0 0
4:54 pm 16:54 Sunny 84 28.9 58 14.4 41 41 SSE 16 26 29.83 1010 10 16.09344 0 0
5:54 pm 17:54 Sunny 84 28.9 59 15 43 43 SSE 14 22 29.8 1009 10 16.09344 0 0
6:54 pm 18:54 Sunny 82 27.8 59 15 46 46 SSE 17 28 29.8 1009 10 16.09344 0 0
7:54 pm 19:54 Sunny 79 26.1 58 14.4 49 49 SSE 10 17 29.77 1008 10 16.09344 0 0
8:54 pm 20:54 Clear 76 24.4 58 14.4 54 54 SSE 9 15 29.77 1008 10 16.09344 0 0
9:54 pm 21:54 Clear 73 22.8 59 15 62 62 SSE 9 15 29.8 1009 10 16.09344 0 0
10:54 pm 22:54 Clear 73 22.8 60 15.6 64 64 SSE 9 15 29.77 1008 10 16.09344 0 0
11:54 pm 23:54 Clear 72 22.2 62 16.7 71 71 S 10 17 29.77 1008 10 16.09344 0 0

Powered by AerisWeather